Zurück zum Katalog

STARLINK-11256

AktivKommunikationVLEO
NORAD 60904·PAYLOAD·🇺🇸 United States

Gestartet Aug 31, 2024 von Cape Canaveral Space Force Station

Loading…

Nächste Überflüge (nächste 24 Stunden)

TLE

AktuellSource: CelesTrak SupGP

Epoche: Sep 15, 2026, 02:35 UTC

1 60904C 24154B   26258.10812500  .00051922  00000+0  42786-3 0  2581
2 60904  53.1574 277.1852 0001090 108.0800  84.8613 15.69674444    16

Verfolge STARLINK-11256 in Echtzeit mit AllMySat

Download on the App Store